Location: Dal�� Lhota
(48.7500°N, 14.0167°E)
Time: 02:37:00
(UTC+00:00)

NOSS 2-2 (C) - Pass Details

Date: 24 September 2020
Orbit: 468 x 1740 km, 63.3° (Epoch: 19 October)

Event Time Altitude Azimuth Distance (km) Brightness Sun altitude
Rises 17:24:42 0° 220° (SW) 2,501 7.2 -5.4°
Reaches altitude 10° 17:26:44 10° 220° (SW) 1,627 6.3 -5.7°
Maximum altitude 17:30:14 90° 290° (WNW) 500 3.1 -6.3°
Drops below altitude 10° 17:34:13 10° 42° (NE) 1,850 5.7 -7.0°
Sets 17:36:40 0° 42° (NE) 2,888 6.6 -7.4°
